• In Colombia
  • List of Countries
  • For 7 days
  • Water Temperature
  • Weather Map
  • Weather Widgets
  • user-avatar
    Login

    Hourly Weather Biskira

    Today, 21 February, Friday

    Time Temperature Precipitation Wind Pressure Humidity
    00:00 +14°C° 0 mm 0 mps 759 mmHg 58%
    01:00 +13°C° 0 mm 0 mps 759 mmHg 59%
    02:00 +13°C° 0 mm 0 mps 759 mmHg 60%
    03:00 +13°C° 0 mm 0 mps 758 mmHg 60%
    04:00 +13°C° 0 mm 0 mps 759 mmHg 61%
    05:00 +13°C° 0 mm 0 mps 759 mmHg 61%
    06:00 +13°C° 0 mm 1 mps 759 mmHg 62%
    13:00 +22°C° 0 mm 1 mps 759 mmHg 35%
    14:00 +23°C° 0 mm 2 mps 759 mmHg 31%
    15:00 +23°C° 0 mm 2 mps 759 mmHg 29%
    16:00 +21°C° 0 mm 2 mps 759 mmHg 31%
    17:00 +21°C° 0 mm 2 mps 759 mmHg 32%
    18:00 +20°C° 0 mm 2 mps 759 mmHg 34%
    19:00 +20°C° 0 mm 1 mps 760 mmHg 36%
    20:00 +20°C° 0 mm 1 mps 760 mmHg 37%
    21:00 +19°C° 0 mm 1 mps 760 mmHg 39%
    22:00 +18°C° 0 mm 1 mps 760 mmHg 39%
    23:00 +18°C° 0 mm 1 mps 760 mmHg 40%

    Tomorrow, 22 February, Saturday

    Time Temperature Precipitation Wind Pressure Humidity
    00:00 +16°C° 0 mm 1 mps 760 mmHg 40%
    01:00 +16°C° 0 mm 1 mps 760 mmHg 40%
    02:00 +15°C° 0 mm 1 mps 760 mmHg 41%
    03:00 +15°C° 0 mm 1 mps 760 mmHg 41%
    04:00 +14°C° 0 mm 1 mps 760 mmHg 40%
    05:00 +14°C° 0 mm 1 mps 760 mmHg 40%
    06:00 +14°C° 0 mm 1 mps 761 mmHg 40%
    07:00 +16°C° 0 mm 1 mps 761 mmHg 37%
    08:00 +18°C° 0 mm 1 mps 762 mmHg 33%
    09:00 +20°C° 0 mm 1 mps 762 mmHg 29%
    10:00 +21°C° 0 mm 1 mps 762 mmHg 28%
    11:00 +22°C° 0 mm 1 mps 762 mmHg 27%
    12:00 +23°C° 0 mm 1 mps 761 mmHg 26%
    13:00 +23°C° 0 mm 1 mps 761 mmHg 24%
    14:00 +24°C° 0 mm 1 mps 761 mmHg 22%
    15:00 +24°C° 0 mm 1 mps 761 mmHg 20%
    16:00 +23°C° 0 mm 1 mps 761 mmHg 22%
    17:00 +22°C° 0 mm 1 mps 761 mmHg 24%
    18:00 +21°C° 0 mm 1 mps 761 mmHg 26%
    19:00 +20°C° 0 mm 1 mps 762 mmHg 28%
    20:00 +20°C° 0 mm 1 mps 762 mmHg 29%
    21:00 +18°C° 0 mm 2 mps 763 mmHg 31%
    22:00 +17°C° 0 mm 2 mps 763 mmHg 32%
    23:00 +17°C° 0 mm 2 mps 763 mmHg 34%

    Day after tomorrow, 23 February, Sunday

    Time Temperature Precipitation Wind Pressure Humidity
    00:00 +16°C° 0 mm 2 mps 763 mmHg 36%
    01:00 +16°C° 0 mm 3 mps 763 mmHg 39%
    02:00 +14°C° 0 mm 3 mps 763 mmHg 41%
    03:00 +14°C° 0 mm 4 mps 763 mmHg 44%
    04:00 +13°C° 0 mm 4 mps 763 mmHg 49%
    05:00 +13°C° 0 mm 3 mps 763 mmHg 54%
    06:00 +12°C° 0 mm 3 mps 763 mmHg 58%
    07:00 +13°C° 0 mm 4 mps 764 mmHg 56%
    08:00 +14°C° 0 mm 4 mps 764 mmHg 53%
    09:00 +15°C° 0 mm 5 mps 765 mmHg 50%
    10:00 +17°C° 0 mm 4 mps 765 mmHg 47%
    11:00 +18°C° 0 mm 4 mps 764 mmHg 43%
    12:00 +19°C° 0 mm 3 mps 764 mmHg 39%
    13:00 +20°C° 0 mm 2 mps 764 mmHg 38%
    14:00 +21°C° 0 mm 1 mps 763 mmHg 36%
    15:00 +21°C° 0 mm 1 mps 763 mmHg 34%
    16:00 +21°C° 0 mm 1 mps 763 mmHg 37%
    17:00 +20°C° 0 mm 1 mps 763 mmHg 39%
    18:00 +17°C° 0 mm 0 mps 763 mmHg 42%
    19:00 +16°C° 0 mm 0 mps 763 mmHg 43%
    20:00 +16°C° 0 mm 0 mps 763 mmHg 45%
    21:00 +15°C° 0 mm 0 mps 763 mmHg 47%
    22:00 +15°C° 0 mm 0 mps 763 mmHg 49%
    23:00 +14°C° 0 mm 0 mps 763 mmHg 50%

    24 February, Monday

    Time Temperature Precipitation Wind Pressure Humidity
    00:00 +14°C° 0 mm 0 mps 763 mmHg 51%
    01:00 +13°C° 0 mm 0 mps 763 mmHg 52%
    02:00 +13°C° 0 mm 0 mps 763 mmHg 54%
    03:00 +12°C° 0 mm 0 mps 762 mmHg 55%
    04:00 +12°C° 0 mm 0 mps 762 mmHg 56%
    05:00 +11°C° 0 mm 0 mps 762 mmHg 57%
    06:00 +11°C° 0 mm 0 mps 762 mmHg 58%
    07:00 +13°C° 0 mm 0 mps 762 mmHg 52%
    08:00 +16°C° 0 mm 1 mps 762 mmHg 46%
    09:00 +19°C° 0 mm 1 mps 762 mmHg 39%
    10:00 +20°C° 0 mm 1 mps 762 mmHg 36%
    11:00 +21°C° 0 mm 1 mps 761 mmHg 32%
    12:00 +22°C° 0 mm 1 mps 761 mmHg 29%
    13:00 +23°C° 0 mm 2 mps 760 mmHg 27%
    14:00 +24°C° 0 mm 2 mps 759 mmHg 24%
    15:00 +25°C° 0 mm 2 mps 759 mmHg 22%
    16:00 +24°C° 0 mm 2 mps 759 mmHg 24%
    17:00 +23°C° 0 mm 2 mps 759 mmHg 27%
    18:00 +21°C° 0 mm 2 mps 759 mmHg 29%
    19:00 +21°C° 0 mm 1 mps 759 mmHg 31%
    20:00 +20°C° 0 mm 1 mps 759 mmHg 33%
    21:00 +19°C° 0 mm 1 mps 759 mmHg 35%
    22:00 +18°C° 0 mm 1 mps 759 mmHg 36%
    23:00 +16°C° 0 mm 0 mps 759 mmHg 37%

    25 February, Tuesday

    Time Temperature Precipitation Wind Pressure Humidity
    00:00 +15°C° 0 mm 0 mps 759 mmHg 38%
    01:00 +15°C° 0 mm 0 mps 758 mmHg 39%
    02:00 +14°C° 0 mm 0 mps 758 mmHg 39%
    03:00 +14°C° 0 mm 0 mps 758 mmHg 40%
    04:00 +15°C° 0 mm 1 mps 758 mmHg 40%
    05:00 +15°C° 0 mm 1 mps 757 mmHg 40%
    06:00 +15°C° 0 mm 1 mps 757 mmHg 40%
    07:00 +16°C° 0 mm 1 mps 758 mmHg 36%
    08:00 +18°C° 0 mm 2 mps 758 mmHg 33%
    09:00 +20°C° 0 mm 2 mps 758 mmHg 29%
    10:00 +22°C° 0 mm 1 mps 757 mmHg 28%
    11:00 +22°C° 0 mm 1 mps 757 mmHg 26%
    12:00 +23°C° 0 mm 1 mps 757 mmHg 24%
    13:00 +24°C° 0 mm 1 mps 756 mmHg 22%
    14:00 +25°C° 0 mm 1 mps 755 mmHg 20%
    15:00 +25°C° 0 mm 2 mps 755 mmHg 18%
    16:00 +24°C° 0 mm 2 mps 755 mmHg 20%
    17:00 +23°C° 0 mm 2 mps 755 mmHg 22%
    18:00 +21°C° 0 mm 2 mps 755 mmHg 23%
    19:00 +20°C° 0 mm 2 mps 755 mmHg 24%
    20:00 +20°C° 0 mm 2 mps 755 mmHg 25%
    21:00 +19°C° 0 mm 2 mps 756 mmHg 26%
    22:00 +19°C° 0 mm 2 mps 755 mmHg 27%
    23:00 +18°C° 0 mm 2 mps 755 mmHg 27%

    26 February, Wednesday

    Time Temperature Precipitation Wind Pressure Humidity
    00:00 +18°C° 0 mm 2 mps 755 mmHg 27%
    01:00 +18°C° 0 mm 3 mps 755 mmHg 29%
    02:00 +17°C° 0 mm 3 mps 755 mmHg 31%
    03:00 +17°C° 0 mm 4 mps 754 mmHg 33%
    04:00 +15°C° 0 mm 4 mps 754 mmHg 35%
    05:00 +15°C° 0 mm 5 mps 754 mmHg 37%
    06:00 +14°C° 0 mm 5 mps 754 mmHg 39%
    07:00 +17°C° 0 mm 4 mps 755 mmHg 35%
    08:00 +19°C° 0 mm 4 mps 755 mmHg 30%
    09:00 +21°C° 0 mm 3 mps 755 mmHg 26%
    10:00 +22°C° 0 mm 3 mps 755 mmHg 23%
    11:00 +24°C° 0 mm 2 mps 755 mmHg 21%
    12:00 +25°C° 0 mm 2 mps 754 mmHg 18%
    13:00 +26°C° 0 mm 3 mps 754 mmHg 18%
    14:00 +26°C° 0 mm 3 mps 754 mmHg 17%
    15:00 +26°C° 0 mm 4 mps 753 mmHg 17%
    16:00 +25°C° 0 mm 3 mps 753 mmHg 20%
    17:00 +24°C° 0 mm 3 mps 754 mmHg 23%
    18:00 +22°C° 0 mm 3 mps 754 mmHg 26%
    19:00 +21°C° 0 mm 3 mps 754 mmHg 29%
    20:00 +20°C° 0 mm 4 mps 755 mmHg 32%
    21:00 +20°C° 0 mm 5 mps 755 mmHg 35%
    22:00 +19°C° 0 mm 4 mps 756 mmHg 37%
    23:00 +19°C° 0 mm 4 mps 756 mmHg 40%
    Show more